Location: Marsån
(66.4167°N, 22.2833°E)
Time: 08:45:17
(UTC+00:00)

Cosmos 1602 Rocket - Pass Details

Date: 24 February 2024
Orbit: 600 x 630 km, 82.5° (Epoch: 20 April)

Event Time Altitude Azimuth Distance (km) Brightness Sun altitude
Rises 17:05:02 0° 185° (S) 2,923 7.1 -10.8°
Reaches altitude 10° 17:07:16 10° 183° (S) 2,019 6.2 -11.0°
Maximum altitude 17:11:42 65° 102° (ESE) 700 3.6 -11.4°
Drops below altitude 10° 17:16:10 10° 21° (NNE) 2,027 6.0 -11.9°
Sets 17:18:25 0° 18° (NNE) 2,935 6.9 -12.1°
